Weather observations for the past three days for
Friday Harbor Airport
Imperial (Metric)
Date Time (pdt) Wind (mph) Vis. (mi.) Weather Sky Cond. Temperature (ºF) Relative Humidity Wind Chill (°F) Heat Index (°F) Pressure Precipitation (in)
Air Dwpt 6 hour altimeter (in) sea level (mb) 1 hr 3 hr 6 hr
Max. Min.
13 05:53 Calm 7.00 Fair CLR 53.1 50 89% 30.04 1017.0
13 04:53 Calm 9.00 Fair CLR 52 48 55.9 52 86% 30.03 1016.9
13 03:53 Calm 10.00 Fair CLR 53.1 48.9 86% 30.02 1016.6
13 02:53 Calm 10.00 Fair CLR 54 48.9 83% 30.02 1016.5
13 01:53 Calm 10.00 Fair CLR 54 50 87% 30.02 1016.5
13 00:53 Calm 10.00 Fair CLR 55 50 83% 30.02 1016.4
12 23:53 Calm 10.00 Fair CLR 55 50 83% 30.02 1016.6
12 22:53 Calm 10.00 Fair CLR 55 50 78.1 55 83% 30.02 1016.6
12 21:53 SE 3 10.00 Fair CLR 57 51.1 81% 30.01 1016.4
12 20:53 Calm 10.00 Fair CLR 60.1 50 70% 30.01 1016.2
12 19:53 SW 5 10.00 Fair CLR 68 52 57% 30.02 1016.3
12 18:53 SW 9 10.00 Fair CLR 71.1 53.1 53% 30.02 1016.5
12 17:53 Calm 10.00 Fair CLR 73 55 53% 30.03 1016.7
12 16:53 SW 5 10.00 Fair CLR 77 55.9 80.1 68 48% 79 30.04 1017.0
12 15:53 SE 6 10.00 Fair CLR 77 57 50% 79 30.05 1017.6
12 14:53 Vrbl 5 10.00 Fair CLR 77 55.9 48% 79 30.07 1018.0
12 13:53 SE 6 10.00 Fair CLR 75.9 55.9 50% 78 30.08 1018.4
12 12:53 SE 6 10.00 Fair CLR 73.9 55 52% 30.09 1018.9
12 11:53 SE 6 10.00 Fair CLR 70 55 59% 30.1 1019.3
12 10:53 SE 7 10.00 Fair CLR 68 54 70 50 61% 30.11 1019.6
12 09:53 SE 6 10.00 Fair CLR 64.9 53.1 66% 30.12 1019.8
12 08:53 E 3 10.00 Fair CLR 62.1 52 70% 30.12 1020.1
12 07:53 SE 3 10.00 Fair CLR 57.9 52 81% 30.13 1020.3
12 06:53 Calm 10.00 Fair CLR 57 53.1 87% 30.12 1019.8
12 05:53 Calm 8.00 Fair CLR 52 48 86% 30.11 1019.6
12 04:53 Calm 10.00 Fair CLR 51.1 46.9 55 51.1 86% 30.1 1019.4
12 03:53 Calm 10.00 Fair CLR 51.1 46.9 86% 30.09 1018.9
12 02:53 Calm 10.00 Fair CLR 52 48 86% 30.09 1018.8
12 01:53 Calm 10.00 Fair CLR 52 48 86% 30.09 1018.8
12 00:53 Calm 10.00 Fair CLR 53.1 48 83% 30.09 1018.8
11 23:53 Calm 10.00 Fair CLR 54 48.9 83% 30.09 1018.9
11 22:53 Calm 10.00 Fair CLR 54 48.9 73 54 83% 30.09 1018.8
11 21:53 Calm 10.00 Fair CLR 55 48.9 80% 30.09 1018.8
11 20:53 Calm 10.00 Fair CLR 55.9 50 81% 30.08 1018.6
11 19:53 Calm 10.00 Fair CLR 60.1 51.1 72% 30.09 1018.9
11 18:53 Calm 10.00 Fair CLR 63 52 68% 30.1 1019.1
11 17:53 SE 3 10.00 Fair CLR 66 53.1 63% 30.1 1019.1
11 16:53 SE 6 10.00 Fair CLR 71.1 54 75 66 55% 30.11 1019.7
11 15:53 SE 7 10.00 Fair CLR 73.9 55 52% 30.12 1019.8
11 14:53 SE 6 10.00 Fair CLR 73.9 54 50% 30.13 1020.3
11 13:53 SE 7 10.00 Fair CLR 73 54 51% 30.15 1020.7
11 12:53 SE 6 10.00 Fair CLR 69.1 54 59% 30.16 1021.1
11 11:53 SE 7 10.00 Fair CLR 68 53.1 59% 30.17 1021.4
11 10:53 SE 7 10.00 Fair CLR 66 53.1 66.9 51.1 63% 30.17 1021.6
11 09:53 SE 6 10.00 Fair CLR 64 53.1 68% 30.16 1021.4
11 08:53 SE 3 10.00 Fair CLR 63 53.1 70% 30.16 1021.2
11 07:53 SE 3 10.00 Fair CLR 60.1 52 75% 30.15 1020.9
11 06:53 Calm 10.00 Fair CLR 57 52 83% 30.14 1020.5
11 05:53 Calm 10.00 Fair CLR 53.1 48.9 86% 30.12 1020.0
11 04:53 Calm 10.00 Fair CLR 52 46.9 59 51.1 83% 30.11 1019.6
11 03:53 Calm 10.00 Fair CLR 53.1 48 83% 30.1 1019.3
11 02:53 Calm 10.00 Fair CLR 54 48 80% 30.09 1018.9
11 01:53 Calm 10.00 Fair CLR 57 48.9 74% 30.09 1018.8
11 00:53 Calm 10.00 Fair CLR 57 50 78% 30.07 1018.4
10 23:53 W 5 10.00 Fair CLR 57.9 51.1 78% 30.06 1018.1
10 22:53 Vrbl 3 10.00 Fair CLR 57.9 52 78.1 57.9 81% 30.05 1017.6
10 21:53 W 7 10.00 Fair CLR 59 51.1 75% 30.05 1017.5
10 20:53 W 6 10.00 Fair CLR 62.1 51.1 67% 30.03 1017.0
10 19:53 W 3 10.00 Fair CLR 66.9 53.1 61% 30.03 1016.7
10 18:53 SW 6 10.00 Fair CLR 72 53.1 52% 30.02 1016.3
10 17:53 Calm 10.00 Fair CLR 77 52 42% 78 30.02 1016.3
10 16:53 E 5 10.00 Fair CLR 68 52 72 62.1 57% 30.03 1016.9
10 15:53 SE 5 10.00 Fair CLR 71.1 53.1 53% 30.04 1017.2
10 14:53 E 5 10.00 Fair CLR 71.1 53.1 53% 30.05 1017.4
10 13:53 SE 5 10.00 Fair CLR 71.1 53.1 53% 30.04 1017.2
10 12:53 Vrbl 3 10.00 Fair CLR 66 53.1 63% 30.05 1017.5
10 11:53 SE 6 10.00 Fair CLR 64 52 65% 30.05 1017.5
10 10:53 E 8 10.00 Fair CLR 64 52 64.9 54 65% 30.04 1017.3
10 09:53 E 6 10.00 Fair CLR 63 52 68% 30.03 1016.8
10 08:53 SE 6 10.00 Fair CLR 62.1 52 70% 30.01 1016.2
10 07:53 Calm 10.00 Fair CLR 59 51.1 75% 29.99 1015.5
10 06:53 E 6 10.00 Fair CLR 55.9 51.1 84% 29.97 1014.7
Date Time (pdt) Wind (mph) Vis. (mi.) Weather Sky Cond. Air Dwpt Max. Min. Relative Humidity Wind Chill (°F) Heat Index (°F) altimeter (in) sea level (mb) 1 hr 3 hr 6 hr
6 hour
Temperature (ºF) Pressure Precipitation (in)